QPF
0.00 0.00 0.00 0.00 0.00 0.00 0.00 0.00 0.00 0.00 0.00 0.00 0.01 0.01 0.01 0.01 0.01 0.01 0.01 0.02 0.02 0.02 0.02 0.03 0.04 0.04 0.04 0.04 0.05 0.05 0.04 0.03 0.02 0.03 0.03 0.02 0.02 0.02 0.03 0.04 0.04 0.04 0.05 0.03
0.01 0.01 0.00 0.00 0.00 0.00 0.00 0.00 0.00 0.00 0.00 0.00 0.00 0.00 0.01 0.02 0.01 0.01 0.01 0.01 0.01 0.02 0.02 0.02 0.04 0.05 0.04 0.05 0.06 0.06 0.06 0.04 0.03 0.03 0.03 0.03 0.03 0.03 0.04 0.05 0.05 0.05 0.05 0.05
0.01 0.01 0.00 0.00 0.00 0.00 0.00 0.00 0.00 0.00 0.00 0.00 0.00 0.00 0.00 0.01 0.02 0.01 0.01 0.01 0.01 0.01 0.01 0.01 0.03 0.05 0.05 0.05 0.06 0.06 0.07 0.06 0.05 0.03 0.03 0.02 0.02 0.02 0.02 0.03 0.04 0.04 0.04 0.05
0.01 0.00 0.00 0.01 0.01 0.00 0.00 0.00 0.00 0.00 0.00 0.00 0.00 0.00 0.00 0.00 0.01 0.01 0.01 0.01 0.01 0.01 0.01 0.01 0.01 0.03 0.05 0.06 0.05 0.06 0.07 0.07 0.06 0.05 0.03 0.01 0.01 0.01 0.01 0.02 0.03 0.04 0.04 0.04
0.00 0.00 0.00 0.00 0.01 0.00 0.00 0.00 0.00 0.00 0.00 0.00 0.00 0.00 0.00 0.00 0.00 0.00 0.01 0.01 0.01 0.01 0.01 0.01 0.01 0.01 0.03 0.05 0.04 0.05 0.07 0.06 0.07 0.05 0.03 0.02 0.01 0.01 0.02 0.03 0.03 0.03 0.03 0.04
0.00 0.00 0.00 0.00 0.01 0.01 0.01 0.02 0.01 0.00 0.00 0.00 0.00 0.00 0.01 0.00 0.00 0.00 0.00 0.00 0.00 0.00 0.01 0.02 0.02 0.02 0.03 0.04 0.05 0.05 0.06 0.08 0.07 0.06 0.04 0.02 0.01 0.01 0.01 0.02 0.03 0.02 0.02 0.03
0.00 0.00 0.00 0.00 0.01 0.01 0.02 0.02 0.02 0.01 0.01 0.00 0.00 0.00 0.01 0.00 0.00 0.00 0.00 0.00 0.00 0.00 0.00 0.01 0.03 0.03 0.03 0.03 0.03 0.04 0.06 0.07 0.09 0.07 0.05 0.03 0.02 0.02 0.02 0.02 0.04 0.03 0.03 0.03
0.00 0.00 0.00 0.00 0.00 0.01 0.01 0.02 0.02 0.02 0.01 0.00 0.00 0.00 0.00 0.00 0.00 0.00 0.00 0.00 0.00 0.00 0.00 0.01 0.02 0.03 0.03 0.02 0.02 0.03 0.04 0.05 0.07 0.06 0.05 0.04 0.02 0.02 0.02 0.03 0.04 0.04 0.04 0.04
0.01 0.00 0.00 0.00 0.00 0.01 0.01 0.01 0.01 0.02 0.01 0.00 0.00 0.00 0.00 0.00 0.00 0.00 0.00 0.01 0.01 0.01 0.00 0.01 0.02 0.03 0.02 0.02 0.02 0.01 0.02 0.03 0.04 0.04 0.05 0.05 0.04 0.04 0.04 0.04 0.04 0.04 0.04 0.04
0.01 0.01 0.00 0.00 0.01 0.01 0.01 0.02 0.02 0.01 0.01 0.01 0.00 0.00 0.01 0.00 0.00 0.00 0.00 0.01 0.01 0.01 0.01 0.01 0.02 0.02 0.02 0.01 0.01 0.01 0.01 0.01 0.02 0.03 0.04 0.04 0.05 0.05 0.05 0.04 0.05 0.05 0.04 0.04
0.02 0.01 0.01 0.01 0.01 0.01 0.01 0.01 0.01 0.01 0.01 0.01 0.01 0.01 0.01 0.00 0.00 0.00 0.00 0.01 0.02 0.00 0.01 0.01 0.02 0.02 0.02 0.01 0.01 0.02 0.02 0.02 0.02 0.02 0.03 0.03 0.04 0.04 0.04 0.04 0.04 0.05 0.05 0.04
0.01 0.02 0.01 0.01 0.01 0.01 0.01 0.01 0.01 0.01 0.01 0.01 0.01 0.01 0.01 0.00 0.00 0.00 0.00 0.01 0.02 0.00 0.00 0.00 0.01 0.01 0.02 0.02 0.02 0.02 0.02 0.02 0.03 0.03 0.02 0.04 0.05 0.04 0.03 0.03 0.03 0.04 0.04 0.04
0.01 0.02 0.02 0.01 0.01 0.01 0.01 0.01 0.01 0.01 0.01 0.01 0.00 0.01 0.01 0.00 0.00 0.00 0.00 0.01 0.01 0.01 0.00 0.00 0.01 0.01 0.02 0.02 0.02 0.02 0.02 0.03 0.04 0.05 0.04 0.04 0.04 0.03 0.02 0.03 0.04 0.03 0.02 0.02
0.01 0.02 0.01 0.01 0.01 0.01 0.01 0.01 0.01 0.01 0.01 0.01 0.00 0.00 0.01 0.00 0.00 0.00 0.01 0.01 0.01 0.01 0.01 0.00 0.00 0.01 0.01 0.02 0.03 0.02 0.03 0.02 0.03 0.03 0.03 0.03 0.02 0.02 0.02 0.02 0.03 0.03 0.03 0.02
0.01 0.01 0.01 0.01 0.01 0.01 0.01 0.01 0.01 0.01 0.01 0.02 0.01 0.01 0.02 0.01 0.01 0.00 0.00 0.01 0.01 0.01 0.01 0.00 0.00 0.01 0.01 0.02 0.03 0.04 0.03 0.03 0.02 0.02 0.02 0.02 0.02 0.02 0.02 0.02 0.02 0.02 0.02 0.03
0.01 0.01 0.01 0.01 0.01 0.01 0.01 0.01 0.01 0.01 0.02 0.02 0.01 0.01 0.01 0.02 0.01 0.00 0.00 0.00 0.01 0.01 0.01 0.00 0.00 0.01 0.01 0.01 0.02 0.05 0.04 0.04 0.04 0.03 0.01 0.02 0.02 0.02 0.02 0.02 0.03 0.02 0.02 0.02
0.01 0.01 0.02 0.02 0.01 0.01 0.01 0.01 0.01 0.02 0.01 0.01 0.02 0.02 0.01 0.02 0.01 0.00 0.00 0.00 0.01 0.01 0.01 0.01 0.01 0.01 0.01 0.01 0.01 0.02 0.05 0.05 0.05 0.05 0.04 0.02 0.02 0.02 0.02 0.03 0.03 0.03 0.03 0.03
0.00 0.01 0.01 0.02 0.02 0.02 0.02 0.01 0.01 0.01 0.02 0.02 0.02 0.03 0.02 0.02 0.01 0.00 0.00 0.00 0.00 0.01 0.01 0.01 0.01 0.01 0.01 0.01 0.01 0.01 0.01 0.02 0.04 0.06 0.08 0.05 0.02 0.02 0.03 0.03 0.03 0.03 0.02 0.02
0.00 0.00 0.01 0.01 0.01 0.01 0.00 0.01 0.01 0.01 0.01 0.02 0.02 0.03 0.02 0.01 0.00 0.00 0.00 0.00 0.00 0.00 0.01 0.01 0.01 0.01 0.01 0.01 0.01 0.01 0.01 0.01 0.02 0.04 0.08 0.08 0.06 0.03 0.03 0.04 0.05 0.03 0.02 0.01
0.00 0.00 0.00 0.01 0.01 0.01 0.00 0.00 0.01 0.01 0.02 0.02 0.03 0.04 0.03 0.01 0.01 0.01 0.01 0.00 0.00 0.00 0.00 0.01 0.01 0.01 0.01 0.01 0.01 0.01 0.01 0.01 0.01 0.02 0.04 0.06 0.07 0.05 0.03 0.04 0.05 0.04 0.03 0.02
0.00 0.00 0.00 0.01 0.01 0.01 0.01 0.01 0.01 0.02 0.03 0.04 0.04 0.04 0.04 0.02 0.01 0.01 0.01 0.01 0.01 0.00 0.00 0.01 0.01 0.01 0.01 0.01 0.01 0.01 0.01 0.01 0.02 0.02 0.02 0.03 0.04 0.05 0.04 0.04 0.05 0.04 0.04 0.04
0.00 0.00 0.00 0.01 0.01 0.01 0.01 0.01 0.02 0.02 0.03 0.04 0.05 0.05 0.05 0.04 0.02 0.01 0.01 0.01 0.01 0.00 0.01 0.01 0.01 0.01 0.01 0.01 0.01 0.01 0.01 0.02 0.02 0.03 0.02 0.02 0.03 0.04 0.04 0.03 0.04 0.05 0.04 0.05
0.00 0.00 0.00 0.01 0.01 0.00 0.00 0.01 0.01 0.01 0.02 0.03 0.04 0.04 0.05 0.05 0.02 0.01 0.01 0.01 0.01 0.01 0.01 0.01 0.01 0.01 0.02 0.01 0.01 0.01 0.02 0.03 0.03 0.02 0.02 0.02 0.02 0.02 0.02 0.02 0.04 0.05 0.06 0.06
0.00 0.00 0.00 0.00 0.00 0.00 0.00 0.00 0.01 0.01 0.01 0.01 0.01 0.02 0.04 0.05 0.03 0.02 0.02 0.02 0.01 0.01 0.01 0.01 0.01 0.01 0.01 0.01 0.01 0.01 0.02 0.03 0.02 0.02 0.01 0.01 0.01 0.01 0.02 0.02 0.03 0.04 0.05 0.06
0.00 0.00 0.01 0.01 0.01 0.00 0.00 0.00 0.00 0.00 0.00 0.00 0.00 0.01 0.02 0.04 0.04 0.03 0.02 0.02 0.02 0.01 0.01 0.01 0.01 0.01 0.01 0.01 0.01 0.01 0.02 0.02 0.02 0.01 0.01 0.01 0.01 0.01 0.01 0.01 0.03 0.04 0.03 0.04
0.00 0.00 0.01 0.01 0.00 0.00 0.00 0.00 0.00 0.00 0.00 0.00 0.00 0.00 0.01 0.02 0.03 0.02 0.02 0.02 0.01 0.01 0.01 0.02 0.02 0.02 0.02 0.02 0.02 0.02 0.02 0.01 0.01 0.01 0.00 0.00 0.00 0.00 0.01 0.01 0.02 0.03 0.04 0.04
MSLP
1010.63 1011.35 1011.99 1012.55 1013.03 1013.44 1013.79 1014.08 1014.30 1014.43 1014.46 1014.38 1014.19 1013.92 1013.60 1013.29 1013.05 1012.92 1012.92 1013.06 1013.32 1013.67 1014.06 1014.43 1014.76 1015.03 1015.23 1015.37 1015.49 1015.61 1015.75 1015.92 1016.11 1016.31 1016.50 1016.66 1016.75 1016.77 1016.72 1016.61 1016.46 1016.30 1016.15 1016.05
1011.30 1011.88 1012.38 1012.81 1013.19 1013.55 1013.90 1014.22 1014.48 1014.66 1014.71 1014.60 1014.32 1013.91 1013.42 1012.92 1012.50 1012.21 1012.11 1012.21 1012.49 1012.90 1013.38 1013.86 1014.28 1014.62 1014.86 1015.02 1015.14 1015.25 1015.39 1015.58 1015.81 1016.07 1016.33 1016.54 1016.69 1016.75 1016.71 1016.58 1016.41 1016.22 1016.05 1015.93
1011.84 1012.27 1012.64 1012.96 1013.28 1013.63 1014.01 1014.39 1014.73 1014.96 1015.02 1014.87 1014.50 1013.94 1013.25 1012.54 1011.91 1011.46 1011.24 1011.27 1011.55 1012.00 1012.56 1013.12 1013.62 1014.03 1014.31 1014.50 1014.63 1014.76 1014.91 1015.14 1015.42 1015.75 1016.08 1016.37 1016.58 1016.68 1016.66 1016.54 1016.35 1016.14 1015.95 1015.82
1012.25 1012.55 1012.81 1013.07 1013.37 1013.74 1014.18 1014.66 1015.08 1015.38 1015.45 1015.26 1014.77 1014.05 1013.16 1012.23 1011.38 1010.74 1010.38 1010.33 1010.57 1011.04 1011.63 1012.25 1012.82 1013.27 1013.60 1013.82 1013.98 1014.14 1014.33 1014.61 1014.96 1015.36 1015.77 1016.13 1016.40 1016.55 1016.56 1016.44 1016.25 1016.02 1015.82 1015.68
1012.58 1012.78 1012.95 1013.17 1013.48 1013.91 1014.45 1015.02 1015.55 1015.90 1015.99 1015.75 1015.16 1014.27 1013.19 1012.04 1010.98 1010.15 1009.64 1009.47 1009.65 1010.08 1010.68 1011.33 1011.93 1012.42 1012.79 1013.05 1013.24 1013.44 1013.68 1014.01 1014.43 1014.90 1015.38 1015.81 1016.14 1016.33 1016.36 1016.26 1016.07 1015.84 1015.62 1015.47
1012.88 1012.98 1013.10 1013.31 1013.66 1014.16 1014.80 1015.48 1016.09 1016.51 1016.60 1016.32 1015.63 1014.60 1013.33 1011.99 1010.73 1009.72 1009.05 1008.76 1008.84 1009.22 1009.79 1010.43 1011.04 1011.56 1011.95 1012.25 1012.48 1012.72 1013.02 1013.40 1013.87 1014.39 1014.93 1015.41 1015.78 1016.00 1016.06 1015.98 1015.79 1015.56 1015.33 1015.17
1013.18 1013.20 1013.28 1013.49 1013.89 1014.47 1015.20 1015.97 1016.65 1017.10 1017.20 1016.87 1016.10 1014.95 1013.54 1012.03 1010.61 1009.44 1008.63 1008.22 1008.20 1008.50 1009.02 1009.63 1010.23 1010.75 1011.17 1011.50 1011.77 1012.05 1012.39 1012.81 1013.32 1013.88 1014.44 1014.94 1015.33 1015.57 1015.65 1015.58 1015.40 1015.17 1014.94 1014.76
1013.48 1013.44 1013.50 1013.73 1014.16 1014.80 1015.59 1016.42 1017.14 1017.60 1017.68 1017.31 1016.47 1015.23 1013.72 1012.10 1010.57 1009.28 1008.35 1007.84 1007.72 1007.94 1008.40 1008.97 1009.55 1010.07 1010.51 1010.86 1011.17 1011.49 1011.86 1012.31 1012.83 1013.39 1013.95 1014.44 1014.83 1015.06 1015.14 1015.07 1014.91 1014.69 1014.46 1014.28
1013.77 1013.70 1013.75 1013.98 1014.43 1015.10 1015.91 1016.74 1017.46 1017.90 1017.95 1017.53 1016.64 1015.35 1013.78 1012.11 1010.52 1009.17 1008.17 1007.58 1007.39 1007.54 1007.93 1008.45 1009.01 1009.53 1009.99 1010.37 1010.72 1011.07 1011.46 1011.91 1012.42 1012.95 1013.47 1013.93 1014.28 1014.49 1014.56 1014.50 1014.34 1014.14 1013.93 1013.75
1014.03 1013.95 1013.99 1014.22 1014.67 1015.32 1016.10 1016.89 1017.55 1017.93 1017.91 1017.44 1016.52 1015.21 1013.64 1011.97 1010.39 1009.03 1008.01 1007.39 1007.15 1007.25 1007.60 1008.08 1008.62 1009.15 1009.62 1010.03 1010.42 1010.79 1011.20 1011.64 1012.11 1012.59 1013.05 1013.44 1013.74 1013.91 1013.95 1013.89 1013.75 1013.57 1013.37 1013.21
1014.24 1014.16 1014.21 1014.43 1014.85 1015.44 1016.14 1016.83 1017.38 1017.66 1017.56 1017.04 1016.10 1014.81 1013.28 1011.67 1010.15 1008.84 1007.86 1007.24 1006.99 1007.06 1007.37 1007.84 1008.36 1008.89 1009.39 1009.84 1010.25 1010.65 1011.05 1011.46 1011.89 1012.30 1012.68 1013.00 1013.22 1013.34 1013.36 1013.29 1013.17 1013.01 1012.84 1012.69
1014.39 1014.33 1014.38 1014.58 1014.95 1015.46 1016.04 1016.59 1016.99 1017.14 1016.95 1016.37 1015.43 1014.18 1012.74 1011.24 1009.82 1008.62 1007.71 1007.13 1006.90 1006.96 1007.26 1007.70 1008.22 1008.75 1009.27 1009.74 1010.18 1010.59 1010.99 1011.37 1011.73 1012.07 1012.36 1012.59 1012.74 1012.81 1012.80 1012.73 1012.61 1012.48 1012.33 1012.20
1014.49 1014.46 1014.52 1014.70 1014.99 1015.39 1015.82 1016.21 1016.45 1016.45 1016.16 1015.54 1014.62 1013.44 1012.12 1010.76 1009.49 1008.42 1007.62 1007.12 1006.92 1006.98 1007.26 1007.69 1008.19 1008.72 1009.23 1009.72 1010.17 1010.59 1010.96 1011.31 1011.61 1011.87 1012.07 1012.21 1012.29 1012.30 1012.26 1012.19 1012.09 1011.97 1011.85 1011.73
1014.54 1014.56 1014.63 1014.77 1014.99 1015.26 1015.54 1015.76 1015.84 1015.71 1015.33 1014.68 1013.80 1012.72 1011.54 1010.36 1009.27 1008.35 1007.67 1007.25 1007.09 1007.16 1007.42 1007.81 1008.28 1008.78 1009.29 1009.76 1010.20 1010.60 1010.95 1011.24 1011.48 1011.66 1011.78 1011.84 1011.85 1011.81 1011.75 1011.66 1011.57 1011.47 1011.36 1011.23
1014.58 1014.63 1014.70 1014.81 1014.96 1015.12 1015.25 1015.31 1015.24 1015.00 1014.56 1013.92 1013.10 1012.16 1011.15 1010.15 1009.25 1008.50 1007.95 1007.61 1007.49 1007.55 1007.77 1008.11 1008.52 1008.97 1009.42 1009.86 1010.26 1010.62 1010.92 1011.15 1011.32 1011.42 1011.46 1011.45 1011.40 1011.32 1011.22 1011.13 1011.03 1010.92 1010.81 1010.67
1014.61 1014.68 1014.76 1014.84 1014.91 1014.97 1014.99 1014.92 1014.75 1014.43 1013.97 1013.36 1012.64 1011.85 1011.02 1010.23 1009.52 1008.93 1008.50 1008.24 1008.13 1008.17 1008.33 1008.59 1008.91 1009.27 1009.64 1010.00 1010.33 1010.62 1010.85 1011.02 1011.11 1011.14 1011.11 1011.03 1010.91 1010.79 1010.66 1010.54 1010.43 1010.30 1010.17 1010.00
1014.66 1014.74 1014.80 1014.85 1014.87 1014.85 1014.78 1014.63 1014.39 1014.04 1013.60 1013.07 1012.47 1011.83 1011.20 1010.61 1010.08 1009.65 1009.32 1009.11 1009.01 1009.00 1009.08 1009.23 1009.44 1009.67 1009.93 1010.18 1010.41 1010.61 1010.76 1010.84 1010.85 1010.80 1010.70 1010.55 1010.38 1010.21 1010.04 1009.89 1009.74 1009.58 1009.40 1009.19
1014.73 1014.80 1014.84 1014.86 1014.84 1014.77 1014.64 1014.45 1014.19 1013.86 1013.47 1013.04 1012.58 1012.11 1011.66 1011.25 1010.88 1010.58 1010.34 1010.16 1010.04 1009.97 1009.96 1009.98 1010.05 1010.14 1010.26 1010.38 1010.49 1010.58 1010.62 1010.61 1010.54 1010.41 1010.23 1010.02 1009.80 1009.57 1009.35 1009.14 1008.94 1008.74 1008.51 1008.24
1014.85 1014.89 1014.91 1014.90 1014.84 1014.75 1014.60 1014.40 1014.16 1013.87 1013.56 1013.23 1012.91 1012.59 1012.30 1012.04 1011.81 1011.61 1011.42 1011.26 1011.10 1010.97 1010.84 1010.75 1010.67 1010.62 1010.59 1010.57 1010.55 1010.52 1010.45 1010.34 1010.18 1009.97 1009.72 1009.44 1009.15 1008.87 1008.59 1008.32 1008.05 1007.78 1007.48 1007.16
1015.04 1015.04 1015.03 1014.99 1014.91 1014.80 1014.66 1014.48 1014.27 1014.04 1013.80 1013.58 1013.37 1013.18 1013.01 1012.86 1012.72 1012.57 1012.42 1012.25 1012.06 1011.85 1011.63 1011.41 1011.21 1011.02 1010.86 1010.71 1010.56 1010.41 1010.24 1010.03 1009.78 1009.49 1009.17 1008.82 1008.47 1008.11 1007.76 1007.42 1007.08 1006.73 1006.37 1005.97
1015.32 1015.28 1015.23 1015.16 1015.08 1014.97 1014.83 1014.68 1014.50 1014.33 1014.15 1014.00 1013.86 1013.75 1013.65 1013.56 1013.47 1013.35 1013.20 1013.01 1012.78 1012.51 1012.21 1011.90 1011.60 1011.30 1011.02 1010.76 1010.51 1010.25 1009.98 1009.68 1009.35 1008.98 1008.59 1008.17 1007.73 1007.30 1006.87 1006.45 1006.03 1005.61 1005.17 1004.72
1015.72 1015.63 1015.55 1015.46 1015.37 1015.26 1015.13 1014.99 1014.85 1014.70 1014.55 1014.43 1014.32 1014.22 1014.14 1014.06 1013.97 1013.84 1013.67 1013.46 1013.19 1012.88 1012.53 1012.16 1011.79 1011.42 1011.06 1010.71 1010.37 1010.03 1009.68 1009.30 1008.89 1008.45 1007.98 1007.48 1006.97 1006.46 1005.94 1005.44 1004.93 1004.43 1003.92 1003.42
1016.23 1016.10 1015.98 1015.88 1015.77 1015.66 1015.54 1015.41 1015.26 1015.11 1014.96 1014.81 1014.68 1014.56 1014.44 1014.32 1014.19 1014.03 1013.83 1013.59 1013.30 1012.96 1012.59 1012.19 1011.79 1011.37 1010.97 1010.57 1010.16 1009.76 1009.33 1008.88 1008.41 1007.89 1007.35 1006.78 1006.18 1005.59 1004.98 1004.38 1003.79 1003.21 1002.64 1002.08
1016.82 1016.66 1016.52 1016.39 1016.28 1016.16 1016.03 1015.89 1015.72 1015.54 1015.34 1015.14 1014.93 1014.74 1014.55 1014.36 1014.16 1013.95 1013.71 1013.45 1013.14 1012.81 1012.44 1012.04 1011.63 1011.20 1010.77 1010.34 1009.89 1009.43 1008.95 1008.44 1007.90 1007.31 1006.70 1006.05 1005.38 1004.69 1004.00 1003.30 1002.62 1001.96 1001.31 1000.71
1017.44 1017.25 1017.09 1016.95 1016.82 1016.70 1016.55 1016.38 1016.17 1015.93 1015.67 1015.38 1015.09 1014.80 1014.51 1014.23 1013.96 1013.70 1013.43 1013.14 1012.84 1012.52 1012.16 1011.78 1011.38 1010.96 1010.52 1010.06 1009.58 1009.08 1008.54 1007.97 1007.37 1006.72 1006.03 1005.31 1004.56 1003.78 1003.00 1002.21 1001.43 1000.68 999.96 999.30
1017.99 1017.78 1017.61 1017.46 1017.33 1017.18 1017.02 1016.81 1016.56 1016.26 1015.92 1015.55 1015.16 1014.77 1014.39 1014.04 1013.70 1013.39 1013.10 1012.81 1012.51 1012.20 1011.87 1011.52 1011.13 1010.70 1010.25 1009.77 1009.25 1008.70 1008.11 1007.48 1006.82 1006.11 1005.35 1004.56 1003.73 1002.87 1002.00 1001.11 1000.24 999.40 998.60 997.86
Thickness
5714 5702 5693 5697 5700 5700 5694 5688 5686 5692 5703 5697 5692 5694 5699 5701 5701 5701 5701 5701 5703 5707 5711 5712 5712 5712 5711 5710 5708 5707 5705 5704 5703 5700 5698 5696 5694 5694 5694 5693 5692 5692 5691 5690
5697 5693 5703 5706 5703 5699 5693 5685 5684 5691 5699 5695 5689 5690 5698 5699 5700 5702 5702 5701 5702 5704 5706 5708 5709 5708 5707 5706 5705 5704 5703 5701 5700 5699 5697 5694 5692 5690 5690 5689 5688 5687 5687 5686
5692 5698 5707 5703 5696 5691 5689 5685 5684 5685 5690 5690 5687 5683 5691 5697 5699 5701 5702 5702 5702 5703 5704 5705 5705 5705 5705 5703 5702 5702 5700 5699 5697 5696 5694 5691 5688 5686 5684 5683 5683 5683 5682 5681
5693 5701 5701 5696 5692 5690 5681 5693 5691 5686 5675 5667 5676 5662 5683 5689 5692 5696 5698 5698 5700 5702 5703 5703 5703 5703 5702 5702 5701 5700 5698 5696 5694 5692 5690 5687 5684 5681 5680 5679 5679 5679 5678 5677
5689 5696 5695 5691 5693 5693 5688 5693 5687 5682 5672 5663 5667 5660 5672 5685 5687 5693 5696 5698 5700 5701 5702 5702 5702 5702 5702 5701 5699 5698 5696 5693 5691 5689 5687 5684 5681 5679 5677 5675 5674 5674 5674 5673
5690 5698 5698 5695 5697 5696 5691 5682 5675 5666 5660 5651 5661 5657 5664 5677 5687 5694 5697 5698 5699 5699 5700 5700 5700 5699 5698 5697 5695 5694 5692 5690 5688 5686 5683 5681 5678 5675 5673 5671 5669 5669 5668 5668
5679 5688 5695 5698 5688 5687 5681 5664 5647 5646 5640 5644 5659 5657 5666 5687 5692 5695 5696 5697 5698 5698 5696 5696 5695 5694 5693 5693 5691 5690 5688 5685 5684 5682 5680 5678 5675 5673 5671 5668 5666 5665 5663 5663
5664 5665 5684 5690 5685 5676 5672 5664 5644 5636 5634 5640 5653 5653 5674 5691 5695 5696 5696 5696 5696 5695 5694 5694 5693 5692 5691 5690 5688 5686 5684 5682 5680 5678 5677 5675 5673 5670 5668 5666 5664 5662 5660 5660
5659 5662 5683 5689 5689 5680 5667 5658 5658 5641 5638 5635 5643 5657 5676 5688 5690 5692 5692 5692 5692 5692 5692 5692 5691 5690 5688 5687 5685 5683 5681 5679 5677 5675 5674 5671 5669 5667 5665 5663 5661 5659 5658 5657
5666 5660 5673 5680 5683 5678 5673 5660 5645 5637 5629 5628 5641 5650 5660 5677 5682 5686 5687 5688 5689 5690 5689 5688 5687 5687 5686 5684 5682 5680 5679 5676 5674 5671 5669 5668 5665 5664 5662 5659 5657 5655 5654 5653
5668 5656 5660 5667 5667 5664 5661 5656 5645 5634 5632 5626 5628 5647 5675 5678 5682 5682 5684 5686 5687 5686 5686 5684 5683 5682 5681 5680 5678 5675 5673 5671 5668 5667 5665 5663 5661 5659 5657 5655 5653 5651 5650 5648
5660 5648 5643 5654 5667 5670 5666 5659 5646 5636 5630 5625 5623 5644 5681 5679 5681 5681 5681 5682 5683 5683 5682 5680 5679 5677 5675 5673 5672 5669 5668 5666 5664 5662 5660 5658 5656 5654 5652 5650 5649 5647 5645 5644
5655 5643 5634 5640 5648 5657 5657 5655 5650 5640 5628 5620 5622 5646 5675 5675 5676 5678 5678 5678 5677 5678 5677 5675 5672 5671 5670 5668 5666 5664 5662 5661 5660 5657 5655 5652 5650 5649 5647 5646 5644 5642 5640 5639
5656 5640 5636 5635 5640 5647 5648 5651 5647 5639 5628 5624 5631 5648 5666 5669 5670 5672 5672 5673 5672 5672 5671 5669 5666 5665 5664 5663 5661 5659 5658 5657 5655 5652 5650 5647 5646 5644 5643 5641 5639 5637 5635 5633
5648 5637 5638 5641 5647 5647 5647 5649 5646 5641 5639 5634 5643 5647 5662 5666 5667 5669 5669 5668 5668 5667 5666 5665 5662 5661 5659 5657 5656 5654 5653 5651 5650 5647 5645 5643 5641 5640 5637 5636 5634 5632 5629 5628
5636 5633 5634 5637 5642 5640 5641 5646 5645 5643 5644 5642 5646 5650 5663 5663 5662 5662 5662 5663 5663 5663 5663 5662 5660 5657 5655 5654 5651 5649 5647 5646 5644 5642 5640 5638 5636 5634 5632 5630 5628 5626 5623 5621
5625 5624 5622 5621 5629 5634 5630 5643 5643 5643 5645 5644 5642 5651 5656 5655 5656 5658 5658 5659 5659 5660 5659 5658 5656 5654 5652 5650 5648 5645 5643 5640 5637 5635 5634 5632 5631 5628 5626 5624 5621 5619 5617 5614
5620 5615 5609 5609 5617 5615 5636 5647 5646 5644 5645 5645 5647 5650 5651 5653 5655 5656 5655 5654 5654 5655 5654 5653 5652 5650 5648 5646 5644 5640 5637 5634 5631 5629 5627 5626 5624 5621 5619 5616 5614 5612 5610 5607
5618 5611 5600 5597 5601 5610 5631 5640 5640 5637 5639 5644 5642 5644 5644 5645 5646 5645 5649 5649 5649 5649 5649 5648 5646 5645 5642 5640 5637 5634 5630 5627 5625 5623 5621 5620 5617 5615 5612 5610 5608 5606 5603 5601
5608 5606 5596 5591 5596 5602 5625 5639 5642 5637 5631 5640 5638 5637 5636 5636 5629 5636 5643 5643 5643 5642 5642 5641 5640 5638 5635 5633 5630 5627 5623 5620 5618 5617 5615 5613 5610 5609 5607 5604 5602 5599 5596 5593
5597 5592 5588 5586 5589 5603 5623 5631 5633 5618 5622 5635 5633 5632 5629 5628 5632 5636 5637 5636 5635 5635 5634 5633 5632 5630 5627 5625 5623 5619 5616 5613 5612 5610 5608 5605 5604 5603 5601 5598 5595 5592 5589 5586
5592 5585 5581 5579 5583 5598 5623 5621 5617 5619 5627 5629 5628 5628 5626 5626 5628 5629 5629 5628 5627 5626 5625 5624 5623 5621 5619 5617 5615 5612 5609 5609 5606 5604 5601 5598 5597 5597 5595 5591 5587 5584 5581 5578
5588 5593 5589 5592 5600 5613 5616 5617 5622 5622 5621 5622 5621 5623 5622 5621 5621 5622 5622 5621 5619 5618 5617 5616 5615 5612 5610 5609 5607 5605 5604 5602 5599 5597 5594 5591 5590 5588 5586 5583 5579 5576 5573 5570
5585 5589 5587 5587 5599 5607 5611 5613 5615 5616 5616 5618 5617 5618 5617 5615 5616 5615 5614 5612 5611 5609 5608 5607 5606 5603 5601 5600 5599 5598 5597 5595 5592 5589 5586 5584 5582 5580 5578 5575 5572 5568 5565 5562
5584 5581 5581 5584 5594 5600 5607 5608 5610 5611 5611 5611 5611 5611 5611 5609 5608 5608 5606 5604 5603 5601 5599 5598 5597 5596 5594 5592 5591 5590 5588 5586 5583 5581 5579 5576 5574 5571 5569 5566 5564 5562 5560 5557
5578 5579 5579 5586 5595 5593 5599 5605 5605 5604 5604 5605 5604 5603 5604 5603 5602 5600 5598 5597 5595 5593 5591 5589 5588 5587 5586 5585 5583 5582 5581 5578 5575 5572 5570 5567 5565 5562 5560 5557 5555 5553 5551 5551